[[{"header":{"parameterUnit":"m.s-1","parameterCategory":1,"la1":30.2991,"la2":30.254,"lo1":-89.0895,"lo2":-89.0444,"dy":0.0017,"dx":0.0017,"nx":28,"ny":28,"refTime":"2024-05-03T03:00:00:Z","depth":0,"parameterNumber":2,"parameterNumberName":"U-component_of_WINDS"},"data":[0,0,0,0,0,0,0,0,0,0,0,0,0,0,0,0,0,0,0,0,0,0,0,0,0,0,0,0,0,0,0,0,0,0,0,0,0,0,0,0,0,0,0,0,0,0,0,0,0,0,0,0,0,0,0,0,0,0,0.5022,0.5021,0,0.5008,0.5008,0.5008,0.4979,0.4978,0.4977,0.4977,0.4963,0.4963,0.4963,0,0,0,0,0,0,0,0,0,0,0,0,0,0.5022,0.5022,0.5022,0.5021,0.5021,0.5008,0.5008,0.5008,0.4979,0.4978,0.4977,0.4977,0.4962,0.4963,0.4963,0,0,0,0,0,0,0,0,0,0,0,0,0,0.5016,0.5022,0.5022,0.5005,0.5004,0.5008,0.5008,0.5007,0.4979,0.4978,0.4977,0.4976,0.4962,0.4963,0.4963,0.4982,0,0,0.4964,0.4964,0,0,0,0,0,0,0,0,0.5017,0.5016,0.5008,0.5006,0.5005,0.4994,0.5002,0.4999,0.4979,0.4988,0.4977,0.4976,0.4974,0.4973,0.4972,0.4981,0.4981,0.4964,0.4964,0.4964,0.4964,0,0,0,0,0,0,0,0.5017,0.5017,0.5016,0.5008,0.5006,0.4998,0.4996,0.5002,0.4986,0.4987,0.4985,0.4984,0.4973,0.4972,0.4972,0.498,0.4964,0.4964,0.4964,0.4964,0.5003,0.5004,0,0,0,0,0,0,0.502,0.5017,0.5017,0.5016,0.5009,0.4999,0.4997,0.4998,0.4986,0.4983,0.4985,0.4983,0.4972,0.4972,0.4971,0.4992,0.4964,0.4964,0.4964,0.5002,0.5003,0.5004,0,0,0,0,0,0,0.502,0.502,0.5017,0.5016,0.5015,0.5,0.5002,0.4999,0.4998,0.4984,0.4981,0.4987,0.4971,0.4971,0.4979,0.4991,0.4964,0.4964,0.5001,0.5002,0.5003,0.5033,0,0,0,0,0,0,0.502,0.502,0.5028,0.5016,0.5015,0.5026,0.5002,0.4999,0.4998,0.4996,0.4985,0.4983,0.4971,0.4979,0.4979,0.4991,0.4965,0.5,0.5001,0.5003,0.5031,0.5035,0.5039,0,0,0,0,0,0.502,0.5037,0.5028,0.5028,0.5024,0.5027,0.5026,0.5012,0.5,0.5007,0.4997,0.4983,0.499,0.498,0.498,0.4992,0.4999,0.5001,0.5003,0.5029,0.5035,0.5039,0,0,0,0,0,0,0.505,0.5035,0.5025,0.5039,0.5034,0.5022,0.503,0.5018,0.5016,0.5014,0.4996,0.4994,0.5004,0.4999,0.4989,0.5009,0.4992,0.4994,0.5012,0.5017,0.5021,0.5022,0.4965,0,0,0,0,0,0.5058,0.5062,0.5048,0.5061,0.506,0.5045,0.5046,0.5035,0.503,0.5028,0.5019,0.5014,0.5015,0.5015,0.5015,0.503,0.5027,0.5038,0.5042,0.5046,0.5047,0.5054,0.5058,0.501,0.501,0.501,0,0,0.5075,0.5067,0.5071,0.5067,0.5062,0.5066,0.5044,0.5049,0.5051,0.5028,0.5035,0.5029,0.5022,0.5033,0.5038,0.5029,0.506,0.5048,0.5051,0.5051,0.5056,0.5061,0.5065,0.5012,0.5011,0.5011,0,0,0.5107,0.5102,0.5112,0.5108,0.51,0.5091,0.5093,0.5082,0.5077,0.5084,0.5067,0.5069,0.5071,0.5066,0.5064,0.5094,0.508,0.5094,0.5115,0.5121,0.5125,0.5128,0.5138,0.5142,0.5096,0.5097,0.5097,0,0.5129,0.5134,0.5119,0.5125,0.5123,0.5103,0.5112,0.5108,0.5102,0.5101,0.5091,0.5092,0.5086,0.5096,0.5103,0.5102,0.5104,0.5095,0.5126,0.5129,0.5132,0.5141,0.5145,0.5098,0.5098,0.5098,0.5098,0,0.5161,0.5164,0.5173,0.5167,0.5167,0.5174,0.516,0.5161,0.515,0.5141,0.5148,0.514,0.5137,0.5139,0.5129,0.5147,0.5141,0.5129,0.5112,0.5138,0.5146,0.515,0.5101,0.51,0.51,0.5099,0,0,0.5212,0.5196,0.52,0.5196,0.5186,0.5189,0.5195,0.5193,0.5194,0.519,0.5194,0.5196,0.5184,0.5181,0.517,0.5176,0.5199,0.5163,0.5162,0.5169,0.5217,0.5226,0.523,0.519,0.5191,0.5191,0.5218,0,0.5241,0.5251,0.5237,0.525,0.5253,0.5233,0.5238,0.5233,0.5224,0.5225,0.5216,0.5217,0.5202,0.52,0.5205,0.5195,0.5208,0.5193,0.5193,0.5194,0.5195,0.5235,0.5244,0.527,0.5221,0.5221,0.5222,0,0.5277,0.5274,0.5287,0.5276,0.5276,0.5282,0.5278,0.5279,0.5272,0.5265,0.5262,0.5249,0.5254,0.5237,0.5243,0.5233,0.5232,0.5227,0.5228,0.5227,0.5209,0.5234,0.5277,0.5281,0.5227,0.5226,0.5226,0,0.5311,0.5311,0.5319,0.5316,0.5304,0.5307,0.5302,0.5294,0.5293,0.529,0.5289,0.5286,0.5284,0.5282,0.5268,0.5258,0.5275,0.5258,0.527,0.527,0.5274,0.5274,0.5317,0.5275,0.5275,0.5274,0.5274,0,0.5345,0.5354,0.5334,0.5339,0.5347,0.5331,0.534,0.5333,0.5326,0.5328,0.5311,0.5314,0.5295,0.5296,0.5285,0.5291,0.529,0.5285,0.5282,0.5286,0.5286,0.5285,0.5282,0.5275,0.5275,0.5275,0.5275,0,0.5385,0.5372,0.5379,0.5366,0.5363,0.537,0.5359,0.5362,0.5353,0.5356,0.5356,0.5341,0.534,0.5326,0.5323,0.5315,0.5326,0.532,0.5328,0.5326,0.5338,0.5336,0.5381,0.5385,0.5341,0.5341,0.5342,0,0.5407,0.5413,0.5401,0.5401,0.5397,0.5398,0.5397,0.5381,0.538,0.5372,0.5376,0.5374,0.5372,0.5372,0.5361,0.5358,0.5351,0.5367,0.535,0.5354,0.535,0.535,0.535,0.537,0.537,0.5371,0.5371,0,0.5447,0.544,0.5439,0.5436,0.5435,0.5432,0.5427,0.5429,0.5411,0.5411,0.541,0.5409,0.5405,0.5403,0.5398,0.5392,0.5378,0.5377,0.5379,0.5383,0.5387,0.5384,0.5336,0.5375,0.5375,0.5375,0.5374,0.5374,0.5478,0.5482,0.5474,0.5473,0.5468,0.5464,0.5467,0.5457,0.5456,0.5452,0.5443,0.5443,0.5435,0.5427,0.5422,0.5422,0.5414,0.5418,0.5418,0.5419,0.5421,0.5388,0.5421,0.5421,0.5421,0.5421,0.5421,0,0.5516,0.551,0.551,0.5504,0.5503,0.5491,0.5485,0.5485,0.5486,0.5479,0.5477,0.5476,0.5474,0.5462,0.5459,0.5461,0.5454,0.546,0.5459,0.5458,0.5429,0.5427,0.5465,0.5465,0.5465,0.5465,0.5465,0.5465,0.5536,0.5542,0.5534,0.5537,0.5531,0.5531,0.5529,0.5525,0.552,0.5519,0.5517,0.551,0.5501,0.5496,0.5494,0.549,0.5489,0.5497,0.5492,0.5465,0.546,0.5456,0.5454,0.5497,0.5497,0.552,0.552,0.5521]},{"header":{"parameterUnit":"m.s-1","parameterCategory":1,"la1":30.2991,"la2":30.254,"lo1":-89.0895,"lo2":-89.0444,"dy":0.0017,"dx":0.0017,"nx":28,"ny":28,"refTime":"2024-05-03T03:00:00:Z","depth":0,"parameterNumber":3,"parameterNumberName":"V-component_of_WINDS"},"data":[0,0,0,0,0,0,0,0,0,0,0,0,0,0,0,0,0,0,0,0,0,0,0,0,0,0,0,0,0,0,0,0,0,0,0,0,0,0,0,0,0,0,0,0,0,0,0,0,0,0,0,0,0,0,0,0,0,0,2.6494,2.6494,0,2.6469,2.6468,2.6468,2.6401,2.64,2.6398,2.6397,2.6372,2.6373,2.6374,0,0,0,0,0,0,0,0,0,0,0,0,0,2.6487,2.6487,2.6494,2.6494,2.6494,2.6469,2.6468,2.6468,2.6401,2.6399,2.6398,2.6396,2.6372,2.6373,2.6374,0,0,0,0,0,0,0,0,0,0,0,0,0,2.6478,2.6487,2.6494,2.6457,2.6454,2.6469,2.6468,2.6468,2.6402,2.6399,2.6397,2.6395,2.6372,2.6373,2.6374,2.6423,0,0,2.6377,2.6377,0,0,0,0,0,0,0,0,2.6479,2.6479,2.6463,2.646,2.6456,2.6436,2.6457,2.6453,2.6402,2.6421,2.6397,2.6394,2.6395,2.6394,2.6394,2.6422,2.6421,2.6377,2.6378,2.6378,2.6378,0,0,0,0,0,0,0,2.648,2.648,2.6484,2.6463,2.6459,2.6442,2.6439,2.6456,2.6421,2.642,2.6415,2.6412,2.6393,2.6393,2.6393,2.6421,2.6377,2.6378,2.6379,2.6379,2.6488,2.649,0,0,0,0,0,0,2.6485,2.648,2.6485,2.6483,2.6462,2.6444,2.644,2.6444,2.642,2.6415,2.6414,2.6409,2.6393,2.6392,2.6392,2.6448,2.6378,2.6379,2.638,2.6485,2.6488,2.6491,0,0,0,0,0,0,2.6485,2.6486,2.6486,2.6481,2.6479,2.6447,2.6452,2.6445,2.6445,2.6416,2.641,2.6421,2.6391,2.6391,2.6416,2.6446,2.638,2.638,2.6483,2.6486,2.6489,2.6561,0,0,0,0,0,0,2.6485,2.6487,2.6505,2.6481,2.648,2.651,2.6454,2.6446,2.6447,2.6441,2.6421,2.6416,2.6389,2.6415,2.6417,2.6446,2.6381,2.648,2.6484,2.6488,2.6556,2.6566,2.6575,0,0,0,0,0,2.6485,2.6527,2.6506,2.6507,2.6502,2.6512,2.6511,2.6479,2.645,2.6468,2.6449,2.6416,2.6443,2.6418,2.642,2.645,2.6478,2.6483,2.6488,2.6551,2.6564,2.6575,0,0,0,0,0,0,2.6555,2.6523,2.65,2.6535,2.6527,2.6501,2.6523,2.6494,2.6494,2.6488,2.6449,2.6445,2.6476,2.6466,2.6438,2.6497,2.6455,2.6461,2.6502,2.6514,2.6524,2.6526,2.6382,0,0,0,0,0,2.6575,2.6585,2.6556,2.659,2.6587,2.6556,2.6559,2.6535,2.6525,2.6522,2.6505,2.6497,2.6503,2.6508,2.6512,2.6554,2.6549,2.6576,2.6586,2.6594,2.6599,2.662,2.6632,2.6507,2.6507,2.6507,0,0,2.6615,2.6598,2.6608,2.6603,2.6594,2.6606,2.6553,2.6568,2.6577,2.6524,2.6546,2.6534,2.6523,2.6556,2.657,2.6548,2.6633,2.66,2.6607,2.6608,2.6627,2.6638,2.6649,2.6511,2.651,2.651,0,0,2.6694,2.6683,2.6709,2.6701,2.6688,2.6666,2.6673,2.6651,2.6641,2.6663,2.6623,2.6633,2.6645,2.6638,2.6637,2.6713,2.6683,2.6716,2.6768,2.6788,2.6798,2.6807,2.6834,2.6844,2.6722,2.6722,2.6722,0,2.6746,2.6762,2.6727,2.6744,2.6743,2.6695,2.6722,2.6716,2.6705,2.6706,2.6682,2.6695,2.6684,2.6715,2.6734,2.6734,2.6741,2.6718,2.68,2.6808,2.6815,2.6841,2.6851,2.6726,2.6725,2.6725,2.6724,0,2.6826,2.6838,2.6861,2.6851,2.6853,2.6875,2.6843,2.6849,2.6825,2.6807,2.683,2.6815,2.6815,2.6821,2.6798,2.6849,2.6836,2.6807,2.6764,2.6832,2.6855,2.6864,2.6732,2.673,2.6729,2.6728,0,0,2.6949,2.6918,2.6928,2.6922,2.6904,2.6912,2.6932,2.6932,2.6938,2.6932,2.6948,2.6959,2.6931,2.693,2.6905,2.6924,2.6985,2.6892,2.6891,2.6909,2.704,2.7062,2.7074,2.6965,2.6967,2.6968,2.7041,0,2.7023,2.7055,2.7023,2.7062,2.7072,2.7027,2.7044,2.7035,2.7018,2.7025,2.7007,2.7015,2.6978,2.6977,2.6993,2.6974,2.7011,2.6969,2.6979,2.698,2.6983,2.7086,2.711,2.718,2.705,2.7051,2.7053,0,2.7114,2.7112,2.7151,2.713,2.7133,2.7149,2.7146,2.7153,2.7142,2.7128,2.7126,2.7097,2.7115,2.7074,2.7098,2.707,2.7073,2.7065,2.7067,2.7066,2.702,2.7089,2.7201,2.7212,2.7067,2.7065,2.7064,0,2.72,2.7206,2.723,2.7227,2.7203,2.7215,2.7206,2.7192,2.7194,2.7192,2.7193,2.7193,2.7193,2.7194,2.7165,2.7138,2.7194,2.715,2.7183,2.7184,2.7197,2.7197,2.7311,2.72,2.7199,2.7199,2.7199,0,2.7286,2.7312,2.7268,2.7283,2.731,2.7274,2.7302,2.7288,2.7277,2.7288,2.7249,2.7261,2.7223,2.7231,2.7209,2.7232,2.7233,2.7223,2.7217,2.7226,2.7227,2.7227,2.7222,2.7202,2.7201,2.7201,2.72,0,2.7386,2.7357,2.738,2.7356,2.735,2.7371,2.735,2.7363,2.7344,2.7359,2.736,2.733,2.7338,2.7309,2.7312,2.7297,2.7332,2.7318,2.7336,2.7332,2.7367,2.7364,2.7485,2.7499,2.7379,2.738,2.7381,0,2.7442,2.7461,2.7438,2.7442,2.7435,2.7443,2.7444,2.7409,2.7412,2.7401,2.7415,2.7419,2.742,2.7434,2.7413,2.7415,2.74,2.7443,2.74,2.7409,2.7401,2.74,2.7401,2.7452,2.7453,2.7454,2.7455,0,2.7546,2.7531,2.7534,2.7533,2.7535,2.7532,2.7527,2.7533,2.7495,2.7501,2.7507,2.7508,2.7511,2.7515,2.7512,2.7503,2.7473,2.7469,2.7476,2.7486,2.7496,2.7491,2.736,2.7466,2.7465,2.7464,2.7464,2.7463,2.7626,2.764,2.7626,2.763,2.7622,2.7618,2.7629,2.7611,2.7615,2.7614,2.7593,2.7604,2.7592,2.7585,2.7579,2.7587,2.7567,2.7579,2.7582,2.7585,2.7591,2.7495,2.7587,2.7586,2.7586,2.7586,2.7585,0,2.7727,2.7716,2.772,2.7714,2.7717,2.7688,2.7681,2.7686,2.7695,2.7687,2.7688,2.7696,2.77,2.7679,2.768,2.7691,2.7677,2.7692,2.7691,2.769,2.7609,2.7602,2.7703,2.7703,2.7703,2.7703,2.7703,2.7703,2.7781,2.7803,2.7786,2.7804,2.7793,2.7802,2.78,2.7796,2.7789,2.7799,2.7802,2.7788,2.7774,2.7774,2.7777,2.777,2.7773,2.7793,2.7782,2.7707,2.7695,2.7684,2.7677,2.7793,2.7794,2.7862,2.7862,2.7863]}]]